Theta_e
318 318 319 319 319 320 322 321 322 322 331 334 335 335 336 337 337 335 336 335 333 332 330 330 330 330 329 326 326 325 324 311 312 312 311 309 306 304 303 302 301 300 300
316 317 318 319 319 319 319 319 320 320 321 331 333 334 332 335 332 332 334 335 333 332 331 330 331 331 329 326 326 325 324 311 312 312 310 308 306 305 303 302 301 300 299
314 314 316 317 318 318 319 319 319 319 320 322 330 333 333 332 332 331 332 333 334 333 331 331 331 331 329 327 327 326 322 311 312 312 311 308 306 304 302 300 299 300 300
314 314 314 314 314 315 317 318 318 320 320 321 326 330 333 331 330 330 330 332 332 333 331 331 331 331 329 327 327 325 317 311 312 312 311 308 306 302 300 299 299 299 298
315 315 315 314 314 315 315 315 315 316 318 320 322 329 331 331 328 328 329 329 332 332 330 329 331 331 329 327 326 323 317 311 311 311 309 306 305 302 299 298 298 297 296
314 314 314 315 314 314 314 315 315 315 315 316 319 320 325 329 329 328 327 329 329 331 330 328 330 330 329 327 325 322 314 310 310 309 308 305 302 300 298 297 296 296 296
312 312 313 313 314 314 314 314 314 314 314 314 317 320 320 323 325 327 327 327 328 329 328 327 328 328 327 325 324 315 311 309 308 307 305 304 300 298 296 295 294 294 294
311 311 311 312 312 312 312 312 312 312 312 313 313 315 321 321 324 326 326 325 326 327 327 327 327 325 325 324 319 312 308 306 306 304 301 300 298 296 295 294 293 292 292
313 312 311 313 313 312 312 313 313 313 313 312 312 313 315 322 324 324 325 327 327 327 327 325 323 321 322 321 314 309 307 304 304 302 300 298 296 295 294 293 292 291 289
313 313 313 312 312 313 312 312 312 311 310 312 314 313 313 320 324 325 324 326 326 326 325 324 322 318 318 313 308 305 303 302 300 299 297 296 295 294 293 292 291 290 289
313 312 313 313 312 312 311 312 311 310 313 314 314 313 315 323 326 325 325 326 325 325 323 322 319 312 309 306 304 303 300 298 297 299 299 296 294 293 292 291 290 289 288
312 312 312 311 311 311 310 310 310 311 316 314 314 314 324 327 327 324 325 325 325 322 320 318 311 307 305 306 302 299 300 304 298 295 294 294 293 292 291 290 289 288 287
312 313 313 313 313 312 311 311 310 312 316 316 317 321 325 326 325 324 323 322 320 319 312 309 306 305 302 300 302 301 296 294 296 297 293 292 291 290 289 288 288 287 287
312 313 314 313 313 314 312 312 311 314 318 319 320 322 322 323 323 321 320 318 315 310 306 304 301 301 298 297 299 300 301 301 296 292 291 289 289 288 288 287 287 287 287
313 313 312 312 312 314 313 313 314 316 316 318 319 320 319 319 316 317 313 310 305 304 303 302 297 295 299 305 306 307 300 294 292 290 288 288 288 287 286 286 287 287 286
310 312 312 312 312 312 312 311 310 308 308 308 308 310 310 309 307 307 304 303 300 299 298 301 301 302 302 302 297 294 293 291 289 288 288 287 287 286 285 285 285 287 287
311 311 310 310 309 308 307 307 304 302 302 302 301 301 302 305 302 301 299 299 299 301 301 299 300 296 296 297 293 291 290 288 288 288 287 286 285 285 284 284 285 286 286
302 301 303 304 303 302 302 302 302 302 301 299 298 297 301 299 298 299 299 300 300 298 296 298 300 300 294 291 291 290 288 288 287 286 285 285 284 284 284 285 286 286 285
302 301 299 300 301 303 303 305 305 304 301 296 295 296 297 297 298 300 300 298 297 298 299 298 293 290 291 291 289 289 288 287 286 285 285 284 283 283 285 286 286 286 285
298 300 299 299 300 299 300 302 300 298 296 294 295 297 300 300 301 301 298 300 299 299 296 290 290 291 290 288 287 286 286 286 286 285 284 283 283 284 285 286 285 284 284
296 296 296 297 297 297 298 297 295 297 299 299 300 300 299 300 299 299 299 300 296 290 289 290 290 289 287 287 286 285 284 284 283 283 283 283 283 284 285 284 283 283 284
296 296 295 295 295 295 297 298 299 298 298 299 299 300 299 299 299 299 295 290 289 289 290 289 288 287 286 285 284 284 283 283 283 283 283 284 284 283 282 282 281 282 282
298 297 297 296 296 297 300 300 299 299 299 299 299 299 300 298 292 290 290 290 290 290 289 287 287 286 285 284 283 283 283 283 283 283 283 283 282 281 281 281 282 283 283
300 299 299 299 298 299 300 301 299 299 299 300 300 299 292 290 290 289 289 290 289 287 286 286 286 285 284 283 283 283 283 283 283 283 282 281 281 281 281 283 284 284 284
302 302 302 301 301 301 300 299 298 298 300 299 293 290 289 289 289 289 289 288 287 287 287 286 284 283 283 283 283 283 283 283 282 282 281 281 281 282 284 284 284 284 284
302 301 302 301 301 301 301 300 300 299 298 293 292 290 289 289 289 290 289 288 287 286 285 284 283 282 282 282 282 282 282 281 280 281 280 281 282 283 284 284 284 284 285
Wind_Speed
35 28 26 30 33 41 45 38 37 31 37 39 38 38 36 33 32 35 32 29 29 28 27 27 28 27 25 23 20 17 15 15 13 11 10 10 9 8 7 7 7 9 10
39 36 31 27 24 28 35 39 37 36 36 42 44 43 39 37 34 34 33 32 33 29 29 28 31 30 28 27 23 19 17 17 15 11 10 7 8 11 9 9 10 10 11
44 43 40 38 34 31 26 26 37 40 35 39 43 44 41 39 37 35 36 37 38 34 31 30 30 33 32 28 24 20 19 18 16 13 10 6 6 6 10 11 13 13 14
32 32 34 35 35 34 32 30 25 27 34 33 43 46 46 45 41 39 38 41 39 37 33 33 36 34 32 28 25 22 20 18 17 14 13 12 11 6 5 9 12 14 15
21 21 20 22 26 26 26 29 30 29 25 29 29 42 48 47 44 42 38 40 41 41 35 35 37 36 33 30 28 25 21 19 18 15 12 12 11 12 12 10 11 14 16
5 11 13 15 18 20 23 26 25 25 30 34 33 34 42 47 44 41 42 42 42 42 39 38 38 33 29 31 27 24 21 20 18 15 13 12 11 11 12 13 17 19 21
3 5 8 9 12 13 15 17 20 23 23 23 32 39 38 40 44 42 43 43 42 42 40 40 38 33 28 28 26 24 21 19 17 15 13 12 12 12 13 15 17 21 25
20 16 8 9 13 16 19 20 21 24 26 29 31 30 39 40 43 43 41 41 42 42 41 40 35 31 29 29 27 24 20 18 15 14 12 12 12 13 13 15 16 21 23
29 26 15 10 11 15 17 20 21 23 27 33 34 35 33 40 43 43 41 41 42 42 40 37 32 30 29 28 25 21 19 17 15 12 12 12 12 13 14 15 16 18 17
38 34 25 21 21 18 15 15 18 23 27 31 34 32 34 36 41 43 39 39 38 39 36 33 30 29 27 26 23 20 18 16 13 12 11 12 13 14 15 16 18 19 21
28 31 31 30 26 23 18 21 20 22 27 29 30 30 32 37 39 37 37 35 34 35 34 31 30 29 27 24 20 17 13 11 10 10 14 14 15 16 16 17 19 21 23
22 24 25 23 16 18 17 14 19 25 24 24 27 29 30 36 35 32 33 31 32 33 32 30 29 28 24 21 17 14 11 12 10 11 14 15 16 16 18 19 21 22 23
15 23 23 16 15 16 13 15 17 22 23 26 24 25 28 29 28 28 27 27 30 32 32 31 29 25 21 18 13 9 7 5 10 15 18 17 17 18 20 21 22 24 25
23 26 25 20 17 15 15 14 15 18 22 24 25 26 27 26 23 21 24 27 31 33 31 27 26 22 20 16 11 7 8 12 13 15 19 18 19 19 20 21 22 22 24
21 22 17 16 12 12 10 11 12 14 20 24 25 26 26 25 24 25 28 29 31 32 29 25 21 19 15 11 9 11 8 10 15 16 17 18 18 19 19 20 20 22 24
26 15 7 6 11 8 6 4 6 10 16 19 22 24 25 26 26 27 28 30 31 28 26 23 19 15 9 3 3 5 10 13 13 14 17 18 20 21 20 19 20 19 21
18 6 4 5 7 6 5 5 10 15 19 21 23 22 24 25 26 26 28 27 25 23 20 16 13 10 6 4 9 7 9 11 13 15 18 19 19 20 22 21 18 18 21
6 4 6 7 6 6 8 12 11 10 14 18 22 23 20 20 22 26 26 25 22 18 16 12 8 2 2 5 7 7 8 11 14 16 17 18 20 21 20 18 20 22 24
4 4 7 9 10 9 10 9 12 15 14 16 18 18 18 27 26 25 26 21 19 16 10 6 3 3 3 6 8 9 11 13 15 17 18 21 23 22 18 19 23 27 30
5 6 8 9 9 11 8 5 10 13 19 23 21 19 22 26 26 22 21 18 11 8 6 5 4 2 4 7 9 12 16 18 20 20 22 23 22 18 17 21 25 29 30
7 8 9 9 11 11 7 14 18 11 16 21 26 28 27 23 20 18 14 12 10 7 6 3 2 2 5 7 10 13 16 19 22 23 24 22 19 17 20 20 23 23 21
7 8 11 14 13 16 12 12 16 21 25 25 25 24 20 17 15 12 12 11 8 6 3 2 3 5 8 11 13 15 16 18 21 21 22 21 20 21 21 20 19 19 20
10 10 12 12 12 12 17 23 25 24 24 22 21 20 18 16 15 11 9 6 4 2 3 4 6 8 11 13 14 16 17 18 18 20 19 21 23 22 20 18 16 17 18
16 15 16 19 20 21 21 22 22 20 19 19 17 16 16 15 12 8 6 3 2 2 4 6 9 10 11 13 13 15 17 18 20 22 23 22 21 18 17 15 13 16 19
19 19 19 20 21 20 19 19 20 19 17 16 15 15 12 10 7 5 3 1 2 5 7 9 10 11 13 13 13 15 18 17 19 20 20 19 17 16 15 15 16 19 20
18 19 18 19 21 19 18 18 16 13 14 15 13 11 8 6 3 1 2 3 6 8 10 11 12 13 13 12 16 18 17 19 18 19 18 17 15 16 17 20 22 21 22
Wind_Direction
255 261 256 247 239 241 245 247 247 248 235 229 228 232 230 228 226 222 224 226 225 227 223 224 225 231 233 232 231 236 231 228 234 243 251 258 260 260 263 265 265 282 282
259 257 252 247 246 245 242 243 247 248 244 235 232 229 229 231 235 232 226 221 232 232 233 229 228 234 234 228 231 237 236 229 232 240 250 254 251 249 246 260 266 268 276
261 258 254 250 247 250 249 247 243 246 248 242 234 232 232 230 229 231 228 222 229 234 237 231 233 235 233 232 235 236 236 234 235 241 238 241 238 228 260 254 254 258 268
258 259 258 252 251 251 252 251 251 245 248 247 238 233 229 228 227 228 230 224 226 233 240 238 232 234 229 227 232 233 231 235 239 240 243 246 257 263 259 257 253 259 264
253 260 268 262 252 249 247 250 251 249 247 251 246 238 236 236 229 230 229 227 228 229 240 239 235 234 225 223 228 230 234 236 240 243 248 253 260 263 257 264 255 258 266
252 252 251 246 249 256 255 246 242 244 249 249 249 246 239 238 233 231 229 225 226 230 238 235 234 231 227 226 229 231 231 233 239 245 250 258 263 268 268 270 279 282 286
115 180 197 201 216 227 233 238 244 248 251 255 250 245 245 242 238 232 231 230 227 230 238 236 234 224 225 226 226 223 227 232 238 247 255 266 268 272 276 280 285 291 298
14 358 284 243 237 232 234 240 245 251 252 251 254 254 244 243 237 233 233 233 231 234 237 232 224 217 221 222 222 221 222 230 236 246 256 267 272 277 282 285 290 297 296
343 342 339 261 252 248 249 252 256 259 261 260 253 254 248 240 237 235 232 233 233 230 227 223 215 215 218 219 217 218 218 227 238 248 261 269 278 282 286 290 293 294 297
328 320 313 296 280 266 260 261 269 269 264 261 250 254 253 237 234 233 235 234 232 224 224 216 214 214 216 211 206 211 213 226 234 251 267 277 281 284 288 291 292 292 291
326 319 300 308 272 258 264 278 278 275 271 257 245 254 250 231 223 229 232 229 226 225 215 211 211 209 205 204 202 207 216 227 243 267 277 280 282 286 290 293 292 292 293
320 316 313 301 260 248 260 274 278 268 262 251 242 250 233 214 213 222 225 221 217 210 209 206 204 201 198 203 197 200 222 262 283 289 286 283 285 290 293 293 293 294 296
299 318 314 304 283 276 277 282 287 279 264 244 238 234 212 207 207 216 212 208 206 202 198 198 195 193 187 188 194 206 229 257 281 294 280 283 287 290 291 293 296 298 299
290 301 296 279 267 289 291 292 292 275 252 226 222 212 205 204 204 204 199 202 198 192 189 186 180 182 179 183 188 210 259 284 292 277 278 285 287 290 292 297 299 299 299
311 305 291 280 282 281 289 304 284 240 215 206 202 196 193 190 189 191 193 191 186 182 180 174 168 176 181 198 226 251 277 281 270 274 281 285 289 293 293 295 296 296 299
320 313 277 280 234 249 275 264 228 200 196 185 176 175 175 175 178 179 180 177 172 164 164 164 175 186 196 221 260 270 253 260 270 281 287 292 295 295 294 292 291 294 299
338 204 202 191 195 209 221 190 170 169 167 162 161 160 165 171 173 167 162 156 154 157 153 163 171 170 181 223 234 245 269 279 289 294 297 300 303 303 302 299 298 295 293
16 106 164 177 177 169 150 137 134 127 140 158 153 163 165 156 147 149 149 148 145 143 164 166 179 184 161 241 276 287 290 298 303 305 308 309 310 310 309 311 305 301 298
51 121 131 139 148 148 147 145 142 155 161 149 147 143 144 142 145 147 142 136 149 158 160 147 135 188 255 287 291 295 303 306 310 312 312 314 316 316 317 310 306 305 304
102 122 138 143 145 141 143 117 135 144 140 138 135 145 149 146 142 142 149 147 145 144 108 163 173 240 285 294 311 318 317 315 313 314 317 317 317 317 319 308 305 301 304
114 133 141 147 141 136 152 144 140 138 137 140 138 140 136 138 139 144 141 138 100 125 163 204 242 274 277 297 310 308 305 309 309 315 316 318 321 320 309 307 297 303 314
130 141 146 141 138 147 153 142 137 134 136 132 129 127 133 137 139 132 112 112 139 177 187 267 293 300 307 306 304 303 304 308 313 319 321 326 325 314 318 315 314 310 304
116 122 129 129 130 129 128 127 125 132 130 130 129 132 133 119 108 114 123 144 170 230 267 283 299 301 305 308 309 309 314 322 324 325 323 315 320 321 319 317 318 316 315
123 124 122 123 123 124 126 127 132 130 130 130 127 122 124 128 133 138 145 167 202 251 292 308 314 315 314 315 315 322 328 333 329 325 325 323 320 321 323 322 324 325 328
141 138 134 132 128 133 136 134 134 139 135 125 124 129 131 133 137 147 146 123 310 311 318 318 320 321 326 334 334 334 334 330 322 320 324 326 328 332 333 335 335 335 335
153 152 150 146 143 144 142 138 135 133 141 143 141 141 143 138 132 164 277 294 315 322 326 328 334 330 329 320 324 326 326 325 326 325 327 332 336 337 339 339 337 339 338